Wetbulb
48.75 48.72 49.62 49.81 49.82 50.09 49.67 48.24 47.40 46.35 45.86 45.90 45.94 46.14 46.06 46.15 46.41 44.61 39.86 40.63 37.44 35.74 35.70 37.82 38.15 34.59 34.20 34.53 32.73 33.45 33.65 34.76 32.32 29.98 33.45 31.13 29.02 32.58 29.87 32.40 23.69 25.91 26.97 27.96 31.47 28.38 24.17 39.94 38.02 32.92 36.98 40.20 40.67 39.96
48.57 48.57 49.41 49.76 49.84 49.97 48.77 47.48 46.63 45.87 45.71 45.47 45.69 45.71 46.13 45.82 45.98 46.43 38.87 41.50 41.87 37.16 35.31 39.99 40.10 41.12 39.86 39.63 36.46 33.21 35.53 36.78 37.48 34.31 36.07 35.48 32.65 32.78 30.19 24.38 34.71 28.88 33.37 31.95 32.12 30.46 37.62 40.16 37.49 40.14 42.27 40.38 40.04 40.22
48.59 48.97 49.51 49.55 49.52 49.75 48.05 46.88 45.93 45.53 45.21 45.31 45.33 45.81 45.98 45.94 45.76 45.08 41.64 40.10 37.66 35.80 34.62 33.84 35.48 40.63 42.36 42.10 44.00 35.26 36.97 39.56 39.19 41.64 38.38 37.17 32.90 35.64 29.78 31.37 33.77 38.08 40.33 33.58 34.13 36.92 36.40 38.05 41.49 42.95 43.37 42.04 42.98 43.90
48.32 48.63 49.51 49.49 49.73 48.89 47.38 46.16 45.48 45.13 44.91 45.21 45.30 45.60 45.61 46.09 46.01 46.20 41.45 40.29 39.81 37.41 31.62 31.74 41.38 40.00 43.79 42.47 42.79 43.43 42.84 44.24 41.99 42.88 39.14 36.67 33.72 37.96 34.33 35.44 33.49 36.70 38.38 37.57 36.18 39.02 39.43 39.53 40.42 42.00 42.78 43.25 43.53 45.35
48.13 48.58 49.40 49.57 49.57 48.29 46.65 45.45 45.05 44.77 44.77 44.92 45.41 45.63 45.79 45.93 45.40 44.62 41.86 40.51 40.68 37.05 30.13 32.22 38.29 40.02 42.43 41.87 44.14 43.59 42.44 41.68 40.84 39.55 38.15 35.90 38.68 37.62 38.10 37.92 35.63 41.20 39.44 36.40 34.42 40.53 37.68 38.58 41.79 43.67 42.48 42.72 44.00 44.19
47.73 48.48 49.14 49.41 49.33 47.47 45.83 44.79 44.69 44.71 44.69 45.06 45.34 45.62 45.71 45.74 45.83 41.15 34.84 45.34 42.03 41.57 36.61 30.21 36.16 38.16 41.86 45.28 44.54 43.03 43.08 42.20 42.68 40.79 39.34 39.60 41.73 38.07 34.62 34.13 40.58 43.97 45.14 43.26 40.87 42.69 40.48 42.38 43.27 43.14 42.19 43.61 44.19 44.37
47.84 48.54 49.12 49.38 48.74 46.74 44.95 44.55 44.72 44.47 44.55 45.29 45.64 45.64 45.80 45.80 42.14 37.89 36.15 41.03 45.25 44.71 37.88 32.55 32.94 37.41 42.51 45.26 46.18 44.01 43.75 44.18 43.31 41.00 38.79 39.40 39.97 40.27 37.33 33.97 41.43 44.00 44.45 43.72 43.78 41.90 40.45 42.44 40.41 42.60 43.65 43.49 44.43 44.77
47.97 48.71 48.90 49.06 47.51 45.52 44.26 44.21 44.14 44.26 44.93 45.13 45.03 45.39 45.92 46.43 45.20 41.82 42.03 47.02 46.28 42.00 40.98 33.26 32.78 34.00 41.49 37.13 38.65 45.77 42.88 43.36 42.34 41.01 40.84 38.98 40.33 40.07 36.25 41.95 43.82 44.06 42.75 41.99 41.31 41.62 42.38 44.19 42.49 42.54 43.72 43.33 42.19 41.88
47.98 48.57 49.04 48.36 46.34 44.57 43.80 43.70 43.79 44.30 44.83 45.46 46.02 46.71 44.04 41.77 41.42 43.66 49.27 48.88 47.36 41.74 35.13 35.05 31.59 28.63 39.42 37.34 38.87 39.14 43.33 38.79 42.65 38.13 38.62 40.05 38.24 35.43 41.48 41.92 42.94 40.88 38.81 39.52 41.41 40.75 41.41 42.23 41.61 41.63 42.03 41.52 40.83 40.87
47.98 48.74 48.70 47.42 45.38 43.72 43.20 43.23 43.62 44.23 44.64 45.86 44.49 40.70 39.99 43.13 50.69 47.44 43.26 41.62 39.94 40.34 39.15 33.71 37.15 34.18 39.05 39.10 38.81 38.38 38.96 39.14 35.42 38.91 42.13 37.87 37.06 44.00 45.11 44.46 44.20 41.62 41.60 40.56 38.41 37.83 38.32 41.50 41.09 41.26 41.16 41.47 41.39 41.32
48.17 48.65 48.16 46.50 44.60 43.15 42.78 42.68 43.52 44.20 43.90 37.65 33.84 34.54 38.17 44.14 38.72 36.00 34.04 36.94 36.28 34.02 36.27 36.44 36.45 36.15 40.25 37.61 36.70 39.30 34.99 36.56 34.80 35.80 38.68 37.58 34.00 42.07 45.86 44.59 43.36 41.89 41.45 40.66 40.66 41.18 40.90 42.50 41.90 41.63 41.81 42.18 41.63 40.64
48.49 48.45 47.25 45.34 43.74 42.86 42.17 42.51 43.33 40.33 38.02 38.16 37.53 39.11 37.89 37.99 36.51 33.47 32.43 38.56 34.81 34.41 36.85 36.26 35.72 37.21 37.65 40.15 39.86 37.11 34.37 37.32 32.01 41.65 38.82 33.31 39.37 44.85 46.37 46.17 41.54 40.41 40.78 40.66 41.15 41.64 41.87 42.88 43.31 42.64 42.53 41.96 41.71 42.03
48.46 47.66 45.88 44.43 43.19 42.54 42.03 42.53 43.55 43.01 42.60 40.78 38.28 35.65 35.47 34.57 26.22 31.90 28.38 29.24 28.23 33.80 35.45 33.50 30.82 34.16 38.11 36.92 33.98 36.48 33.91 33.77 38.24 31.59 35.99 36.43 38.27 42.54 43.60 46.17 42.24 41.28 41.22 41.07 41.00 41.91 42.37 42.22 43.69 43.10 41.92 42.78 42.32 40.85
48.12 46.48 44.95 43.45 42.80 42.15 42.15 42.81 42.65 42.02 39.08 37.30 36.21 23.10 30.17 30.85 32.30 31.40 28.75 29.42 32.86 32.47 32.29 31.38 30.15 30.22 33.14 31.52 33.63 31.47 35.17 34.37 30.91 29.57 30.03 34.03 35.63 37.86 40.72 47.46 44.28 41.51 40.74 40.60 40.98 41.61 41.23 41.36 40.98 43.05 42.48 42.78 42.00 39.70
46.61 45.02 43.60 42.81 42.61 42.21 42.53 43.01 42.49 41.10 38.56 35.99 34.34 23.39 30.53 33.66 32.81 32.21 32.31 31.15 32.42 32.41 30.74 29.87 29.62 30.39 29.28 30.51 35.26 33.95 31.91 29.21 30.70 28.04 31.80 33.61 34.46 39.12 47.11 47.55 46.91 44.09 40.85 40.46 40.68 40.83 41.09 41.02 40.31 40.16 41.63 41.60 42.55 40.92
44.58 42.63 40.65 41.84 42.26 42.42 43.40 42.55 41.78 40.96 39.84 36.46 34.14 30.93 32.37 30.58 29.80 30.39 30.28 29.82 32.75 31.70 31.65 30.68 29.70 29.76 31.74 32.78 31.23 28.33 26.32 25.12 28.43 32.22 33.99 36.35 38.11 41.10 46.05 46.82 46.57 47.25 42.77 41.14 40.92 41.52 41.86 41.08 40.16 39.87 41.89 42.31 41.88 41.28
41.46 38.06 42.88 42.56 43.63 43.51 42.37 40.06 41.37 38.92 36.23 35.41 31.96 34.19 31.76 30.57 29.51 29.63 30.67 31.69 33.40 31.22 27.23 29.78 27.98 28.60 33.41 29.28 27.79 30.37 27.98 31.27 34.14 36.22 37.36 38.58 38.81 39.11 44.27 47.37 48.13 46.94 47.46 43.79 41.95 41.85 41.65 41.91 41.66 40.51 39.40 41.13 42.00 42.43
38.83 40.31 43.45 43.95 42.47 41.79 40.83 39.66 39.07 37.51 33.18 33.18 30.31 31.86 31.76 32.19 31.82 32.76 34.06 35.00 34.23 32.83 31.44 28.48 34.30 27.54 27.20 24.39 25.57 30.67 32.93 36.22 36.30 35.48 36.17 37.70 37.99 38.70 39.72 45.56 48.16 47.61 47.05 48.42 45.61 42.68 41.73 41.21 39.66 38.98 39.62 40.85 41.10 40.60
41.16 42.64 44.41 43.21 40.93 39.82 39.26 39.37 39.54 33.08 33.85 34.09 34.03 33.08 32.71 33.92 34.60 35.44 34.74 35.50 36.54 35.79 33.17 30.78 27.62 25.57 27.07 31.29 30.92 32.51 34.86 33.83 32.32 33.27 34.84 35.74 36.32 36.54 39.33 42.27 46.31 47.78 48.00 46.70 45.53 45.57 42.37 41.77 41.20 40.45 40.25 39.50 38.79 40.16
42.29 42.26 42.85 41.95 40.53 38.16 37.56 35.94 39.03 33.57 31.15 33.44 33.57 31.97 32.33 32.82 33.65 33.45 32.72 32.78 32.30 31.44 28.68 28.30 27.83 29.68 30.50 32.47 35.21 35.70 34.72 34.31 33.03 31.89 32.73 34.22 35.42 35.72 37.13 40.77 43.01 46.82 47.47 47.75 47.19 44.78 46.12 40.67 41.44 41.53 40.39 39.50 38.44 38.39
39.72 40.55 41.79 39.80 37.50 38.20 37.90 35.93 33.90 35.19 33.71 31.85 33.42 32.25 32.96 33.24 31.08 29.99 29.87 32.02 29.06 28.42 26.91 31.86 32.06 33.66 36.07 37.51 37.04 34.74 34.47 34.47 33.06 33.40 33.64 33.52 35.45 35.48 37.79 39.76 42.13 43.67 44.28 45.63 46.69 46.78 46.77 46.32 43.64 40.06 40.99 39.88 39.19 39.37
39.69 42.80 39.48 39.88 37.84 39.60 35.48 36.86 34.59 35.56 33.01 32.61 32.39 32.89 31.02 28.71 29.62 29.70 31.86 28.47 27.70 31.73 32.54 33.08 34.04 35.25 36.40 33.44 34.98 35.79 35.56 35.67 36.24 36.46 35.95 36.03 35.46 34.22 33.68 36.93 38.24 39.08 38.93 38.85 40.47 42.57 46.87 49.04 48.07 43.81 40.79 40.06 39.79 39.56
41.88 40.52 38.14 39.61 35.79 33.13 31.12 37.47 31.99 33.73 30.36 31.31 31.32 31.37 30.11 29.97 31.73 34.04 27.68 25.97 25.99 34.19 36.04 35.73 35.94 35.20 36.06 36.53 36.61 36.18 36.03 35.12 34.88 35.73 34.01 34.93 35.99 34.86 34.90 35.18 36.24 36.27 34.70 35.73 37.89 39.34 41.57 41.76 46.84 44.95 42.36 41.36 39.16 38.67
41.16 37.37 35.00 34.36 33.13 29.53 35.71 32.01 33.80 33.18 32.77 28.82 29.24 29.77 30.02 30.62 32.89 28.55 23.11 30.49 27.88 34.60 33.87 34.28 34.94 33.50 34.71 35.20 34.08 34.00 32.53 33.65 33.77 36.04 36.25 34.44 33.17 33.60 34.69 34.80 35.66 36.26 35.82 36.07 36.64 37.53 39.45 41.39 41.79 46.77 44.65 41.96 40.96 38.96
28.74 28.58 30.96 26.89 34.76 31.70 31.96 31.72 32.61 30.15 29.81 31.01 30.91 29.79 28.67 31.60 24.61 23.94 24.37 23.74 30.76 31.35 32.29 33.30 33.25 33.43 32.99 33.26 33.40 30.83 31.04 29.96 30.36 33.08 35.41 36.67 33.41 32.22 33.19 34.43 35.00 35.88 36.33 34.85 35.21 36.26 37.04 38.53 39.97 42.13 45.41 42.45 40.48 41.12
23.84 29.92 28.04 30.70 30.81 31.62 31.09 29.21 29.62 29.57 30.05 31.11 31.01 32.78 29.94 27.57 26.49 24.38 24.58 29.21 31.27 31.95 28.97 29.28 28.64 29.62 30.47 29.29 28.83 26.57 27.71 28.35 29.44 28.50 34.38 35.11 34.15 30.70 30.90 31.40 31.61 32.61 35.67 35.67 35.45 35.26 35.76 36.48 37.48 39.15 41.69 45.25 37.36 41.28
25.03 26.74 31.25 35.81 34.64 34.42 31.54 32.86 33.07 29.85 29.76 29.38 30.16 29.42 27.27 20.27 20.25 27.71 28.09 29.21 27.02 29.81 31.45 32.01 31.70 30.02 28.80 28.30 29.29 29.44 29.13 28.93 27.61 27.33 31.07 32.75 33.30 32.53 32.08 31.50 31.08 33.20 34.91 35.07 34.64 34.47 34.91 35.14 36.04 37.67 39.26 41.17 44.95 44.06
29.72 31.67 28.18 29.80 31.77 32.85 30.75 30.93 31.15 30.17 31.12 33.42 32.29 29.33 25.70 24.31 24.45 30.10 30.72 31.78 31.81 31.41 30.88 31.83 31.71 31.32 31.18 30.34 29.17 28.35 27.80 28.07 28.90 28.28 27.38 28.12 29.67 30.56 31.23 33.54 34.66 32.86 33.92 33.93 33.51 33.58 33.73 33.45 33.97 35.47 36.95 38.19 40.48 45.93
30.02 32.00 32.56 29.68 31.19 31.40 32.21 31.40 31.58 33.22 35.72 34.25 30.07 28.56 28.79 31.18 30.86 28.79 31.23 31.77 31.80 30.47 29.09 28.94 29.53 31.14 31.38 31.37 30.45 29.29 28.05 25.50 24.51 22.77 22.11 21.72 23.19 25.35 29.34 31.27 33.17 33.27 32.76 32.20 31.72 31.72 31.67 31.83 32.91 34.87 36.82 38.96 40.98 44.85
29.73 33.73 30.04 32.30 30.23 29.34 32.81 34.34 32.84 34.29 34.32 32.87 32.77 32.15 31.88 30.70 32.37 33.02 31.64 30.07 28.72 27.76 28.74 28.92 28.08 28.29 27.11 26.80 26.48 27.39 28.02 25.69 23.72 21.66 19.70 21.58 23.53 27.34 28.23 29.38 31.88 31.68 31.50 30.83 29.86 29.72 30.06 31.51 31.66 34.04 34.48 37.97 39.73 37.92
33.61 33.60 32.15 32.41 32.19 34.36 35.13 36.10 35.34 33.84 32.97 31.10 32.77 29.63 26.74 27.98 29.20 30.29 29.46 28.08 28.52 28.31 27.81 27.11 27.54 28.17 27.70 26.38 25.39 24.51 23.29 25.16 25.85 25.87 23.79 24.66 26.18 26.88 27.53 28.41 30.69 31.22 30.52 29.32 28.41 27.22 26.99 28.00 28.27 27.95 28.29 29.05 30.10 32.48
31.97 32.09 32.25 29.73 29.95 33.99 35.63 35.39 34.03 30.47 29.16 27.98 26.25 27.06 25.41 25.26 22.11 23.21 28.57 28.15 26.96 26.03 26.55 27.71 27.57 26.87 27.97 27.98 28.07 27.74 25.66 25.43 24.61 25.12 26.53 25.08 24.32 25.35 25.97 26.63 28.86 30.78 28.78 26.62 26.44 25.82 24.55 24.59 25.11 25.66 25.89 26.28 27.18 27.65
28.76 31.05 31.67 30.30 28.49 30.74 32.86 33.08 32.28 31.12 30.15 27.74 27.05 28.56 29.46 25.02 23.38 25.07 28.86 30.50 28.68 27.47 24.20 27.66 29.53 29.61 29.34 28.96 28.39 27.97 28.59 28.59 25.17 25.13 25.09 24.33 23.20 23.25 23.52 23.78 25.07 27.87 26.27 24.55 23.66 23.05 22.40 20.89 20.67 21.52 22.61 23.95 24.96 25.55
MSLP
1025.05 1025.06 1025.01 1024.92 1024.93 1024.59 1024.53 1024.51 1024.50 1024.38 1024.12 1023.72 1023.41 1023.25 1022.99 1022.69 1022.28 1022.21 1022.02 1021.80 1022.32 1021.18 1018.86 1017.85 1017.41 1017.42 1017.22 1017.05 1016.64 1015.62 1015.32 1014.53 1014.19 1013.86 1013.56 1013.27 1012.84 1012.16 1011.97 1011.39 1011.43 1011.64 1011.36 1010.90 1010.21 1009.26 1008.26 1007.60 1007.57 1007.65 1005.97 1005.25 1004.86 1005.37
1024.55 1024.55 1024.53 1024.38 1024.46 1024.23 1024.00 1024.13 1024.05 1023.92 1023.74 1023.51 1023.20 1023.00 1022.69 1022.35 1022.17 1021.91 1021.93 1021.48 1021.48 1021.40 1018.57 1016.99 1016.26 1016.08 1016.02 1015.04 1015.83 1015.94 1015.71 1014.93 1014.51 1014.42 1014.22 1014.05 1013.53 1012.93 1012.60 1012.22 1011.37 1011.16 1010.81 1010.39 1010.01 1008.20 1007.15 1007.33 1007.61 1006.88 1005.98 1005.20 1004.77 1005.01
1024.00 1024.07 1024.08 1023.99 1023.97 1023.92 1023.73 1023.66 1023.72 1023.59 1023.44 1023.13 1022.86 1022.55 1022.39 1022.00 1021.79 1021.69 1021.46 1021.40 1021.54 1020.75 1018.05 1016.19 1014.50 1013.67 1013.72 1013.84 1014.49 1015.34 1014.50 1014.16 1014.07 1013.97 1014.40 1014.17 1013.75 1013.21 1012.63 1011.77 1011.10 1010.23 1010.02 1009.78 1009.33 1007.56 1007.41 1007.18 1007.01 1006.53 1005.70 1004.95 1003.89 1004.15
1023.25 1023.44 1023.55 1023.50 1023.43 1023.38 1023.45 1023.29 1023.34 1023.15 1023.00 1022.88 1022.45 1022.11 1021.91 1021.55 1021.24 1021.00 1020.84 1020.91 1021.27 1020.76 1019.30 1015.87 1014.04 1013.53 1012.82 1012.62 1012.62 1012.61 1012.71 1013.18 1013.59 1013.97 1014.24 1013.90 1013.54 1012.99 1012.24 1011.36 1010.86 1009.84 1009.62 1008.35 1007.74 1007.39 1007.26 1006.54 1006.75 1006.18 1005.66 1004.45 1003.77 1003.33
1022.54 1022.78 1022.86 1022.99 1022.91 1022.90 1022.90 1022.70 1022.91 1022.71 1022.32 1022.17 1022.03 1021.67 1021.38 1021.14 1020.82 1020.42 1019.86 1019.73 1020.28 1020.62 1019.61 1016.66 1014.79 1012.86 1012.27 1011.82 1011.33 1011.76 1012.43 1012.92 1013.53 1013.80 1013.71 1013.45 1012.93 1012.38 1011.37 1010.51 1009.26 1008.42 1007.70 1007.53 1007.16 1007.01 1007.15 1006.65 1006.25 1005.93 1005.25 1004.37 1003.70 1003.20
1021.82 1022.04 1022.14 1022.30 1022.48 1022.53 1022.43 1022.20 1022.35 1022.13 1021.92 1021.58 1021.17 1021.19 1020.99 1020.72 1020.48 1020.53 1019.69 1019.14 1019.44 1019.95 1019.36 1017.94 1015.77 1013.58 1011.96 1011.23 1010.90 1011.16 1011.58 1012.43 1012.96 1013.14 1012.94 1012.64 1012.10 1012.10 1011.17 1009.65 1008.04 1007.48 1007.09 1006.62 1006.54 1006.16 1006.21 1006.18 1005.89 1006.05 1005.18 1004.41 1003.62 1003.33
1021.17 1021.37 1021.41 1021.66 1021.84 1022.11 1021.92 1021.84 1021.89 1021.61 1021.27 1020.95 1020.45 1020.42 1020.42 1020.21 1020.43 1020.28 1019.65 1019.26 1018.93 1019.22 1019.09 1018.07 1016.48 1014.24 1012.68 1011.83 1011.97 1011.85 1011.99 1012.18 1012.35 1012.56 1012.40 1012.03 1011.53 1011.55 1010.26 1008.83 1007.30 1006.71 1006.39 1006.08 1005.94 1005.98 1005.91 1006.04 1006.11 1005.67 1005.02 1004.42 1003.56 1003.03
1020.69 1020.90 1020.99 1021.12 1021.38 1021.53 1021.47 1021.36 1021.40 1021.06 1020.58 1020.03 1019.79 1019.64 1019.58 1019.54 1019.57 1019.42 1018.66 1017.97 1018.38 1019.13 1018.94 1018.68 1017.19 1015.41 1013.02 1012.75 1012.38 1011.74 1011.83 1011.97 1011.88 1011.78 1011.59 1011.27 1010.76 1010.37 1008.83 1007.43 1007.04 1005.98 1006.00 1006.16 1006.00 1005.84 1005.60 1005.75 1005.96 1005.59 1005.01 1004.56 1003.86 1003.40
1020.14 1020.35 1020.56 1020.73 1021.00 1021.05 1021.07 1021.08 1020.88 1020.34 1019.91 1018.79 1018.79 1018.46 1018.80 1019.19 1018.89 1018.35 1017.97 1018.10 1018.37 1019.07 1018.88 1018.66 1017.92 1016.40 1014.03 1013.36 1012.41 1011.96 1011.66 1011.55 1011.52 1011.27 1010.77 1010.58 1009.73 1008.97 1007.52 1006.89 1006.36 1005.91 1006.16 1006.21 1005.98 1005.86 1005.75 1006.10 1006.11 1005.57 1005.13 1004.72 1004.20 1003.90
1019.63 1019.76 1020.00 1020.30 1020.53 1020.72 1020.80 1020.80 1020.52 1020.03 1019.14 1018.00 1018.15 1018.54 1018.64 1018.30 1017.87 1018.12 1018.35 1018.46 1018.67 1018.92 1018.92 1018.55 1017.85 1016.84 1015.66 1014.27 1012.97 1012.17 1011.78 1011.39 1011.05 1010.41 1010.02 1009.67 1008.95 1007.81 1007.28 1006.60 1006.34 1006.14 1006.18 1006.19 1006.09 1005.85 1005.99 1006.04 1006.07 1005.82 1005.51 1005.07 1004.70 1004.36
1018.92 1019.18 1019.49 1019.79 1020.11 1020.37 1020.55 1020.45 1020.19 1019.84 1018.61 1018.64 1019.22 1019.23 1018.60 1018.03 1018.12 1018.12 1018.11 1018.23 1018.56 1018.73 1018.63 1018.12 1017.36 1016.50 1015.16 1014.71 1013.56 1012.56 1012.03 1011.03 1010.54 1010.24 1009.46 1008.98 1008.79 1007.98 1007.15 1006.85 1006.44 1006.39 1006.37 1006.28 1006.12 1006.00 1006.07 1006.15 1006.28 1006.06 1005.84 1005.49 1005.17 1004.89
1018.27 1018.63 1018.97 1019.32 1019.79 1020.11 1020.20 1020.08 1020.08 1020.21 1019.76 1020.03 1020.30 1019.82 1019.21 1018.32 1017.98 1017.98 1017.60 1017.64 1017.97 1017.95 1017.82 1017.25 1016.28 1015.65 1014.86 1014.20 1013.79 1012.86 1012.22 1011.10 1010.39 1009.91 1009.49 1009.52 1009.46 1008.34 1007.86 1007.03 1006.81 1006.65 1006.64 1006.50 1006.29 1006.19 1006.18 1006.41 1006.56 1006.70 1006.44 1006.30 1006.07 1005.70
1017.67 1018.13 1018.55 1019.06 1019.57 1019.81 1019.87 1019.70 1019.95 1019.89 1019.55 1019.69 1019.63 1019.38 1018.76 1018.02 1017.70 1017.26 1017.24 1017.28 1017.41 1017.36 1017.02 1016.58 1016.33 1015.44 1014.44 1014.25 1014.06 1013.63 1012.74 1011.46 1010.62 1010.36 1010.44 1011.10 1011.11 1009.95 1009.25 1008.14 1007.10 1006.88 1006.92 1006.82 1006.82 1006.95 1006.90 1006.90 1007.03 1006.95 1006.84 1006.71 1006.57 1006.52
1017.13 1017.76 1018.31 1018.86 1019.26 1019.50 1019.55 1019.40 1019.64 1019.54 1019.59 1019.40 1018.83 1018.66 1018.02 1017.44 1017.03 1017.07 1017.20 1017.23 1017.06 1016.97 1016.78 1016.42 1016.28 1015.65 1014.67 1014.60 1014.50 1014.09 1013.13 1012.60 1012.18 1012.88 1013.45 1012.94 1012.11 1011.07 1009.17 1007.56 1007.30 1007.08 1007.16 1006.98 1007.13 1007.21 1007.10 1006.85 1006.77 1006.80 1006.97 1006.87 1006.66 1006.67
1016.78 1017.45 1018.11 1018.59 1018.78 1018.88 1019.36 1019.21 1019.25 1019.42 1019.24 1018.69 1017.93 1017.77 1017.33 1016.89 1016.72 1016.78 1016.79 1016.87 1016.68 1016.40 1016.34 1016.04 1015.54 1015.29 1015.01 1015.01 1015.01 1014.90 1014.39 1014.58 1015.55 1016.20 1015.65 1014.51 1012.96 1010.65 1008.30 1008.07 1008.09 1007.58 1007.45 1007.27 1007.27 1007.40 1007.51 1007.35 1007.27 1007.38 1007.47 1007.34 1007.11 1007.02
1016.77 1017.56 1017.75 1017.96 1018.23 1018.37 1018.89 1018.89 1018.97 1018.98 1018.49 1017.89 1017.39 1017.11 1016.76 1016.88 1017.03 1016.87 1016.94 1017.07 1016.53 1016.46 1016.13 1016.12 1016.24 1016.20 1016.42 1016.17 1016.21 1017.04 1017.16 1017.36 1017.32 1016.96 1016.22 1015.32 1013.56 1010.97 1009.30 1009.04 1008.44 1007.77 1007.57 1007.53 1007.50 1007.60 1007.87 1007.88 1007.81 1007.90 1008.04 1007.97 1007.80 1007.51
1016.69 1016.97 1016.92 1017.47 1017.81 1018.13 1018.50 1018.70 1018.51 1018.26 1017.62 1017.18 1016.88 1016.48 1016.68 1017.03 1017.17 1017.25 1017.29 1017.31 1016.72 1016.97 1017.33 1017.17 1017.40 1017.56 1017.62 1017.99 1018.53 1019.02 1018.93 1018.57 1017.98 1017.28 1016.54 1015.82 1014.47 1012.71 1011.19 1009.63 1009.03 1008.50 1007.92 1007.85 1007.73 1007.73 1008.03 1008.28 1008.35 1008.53 1008.80 1008.89 1008.61 1008.50
1016.27 1016.40 1016.72 1017.20 1017.56 1017.83 1018.13 1018.30 1017.91 1017.09 1016.99 1016.70 1016.70 1016.51 1016.42 1016.57 1017.15 1017.48 1017.49 1017.30 1017.29 1017.42 1017.53 1017.80 1018.03 1018.81 1019.31 1019.82 1020.04 1020.02 1019.56 1018.92 1018.62 1018.10 1017.30 1016.20 1015.18 1013.92 1012.32 1010.70 1009.83 1009.39 1008.65 1008.31 1008.25 1008.18 1008.28 1008.63 1008.82 1009.01 1009.19 1009.31 1009.44 1009.59
1015.69 1016.12 1016.65 1017.01 1017.29 1017.44 1017.43 1017.41 1017.07 1016.63 1016.18 1016.05 1016.04 1016.02 1016.27 1017.04 1017.38 1017.47 1017.67 1017.52 1017.44 1017.58 1018.03 1018.97 1019.71 1020.24 1020.72 1020.76 1020.73 1020.30 1019.74 1019.32 1018.63 1017.80 1017.34 1016.69 1015.99 1014.59 1013.22 1011.87 1010.79 1010.07 1009.40 1009.04 1008.84 1008.48 1008.32 1008.59 1008.86 1009.11 1009.39 1009.62 1009.76 1009.96
1015.94 1016.40 1016.67 1016.98 1017.26 1017.28 1016.76 1016.22 1015.83 1016.13 1015.96 1015.66 1015.57 1016.02 1016.64 1017.30 1017.60 1018.06 1018.24 1018.36 1018.37 1018.97 1019.96 1020.48 1021.01 1021.24 1021.25 1021.05 1020.66 1020.52 1020.17 1019.62 1018.90 1017.78 1017.08 1016.78 1016.14 1015.10 1014.09 1013.11 1011.98 1010.93 1010.37 1009.72 1009.35 1009.01 1008.87 1008.76 1008.70 1009.11 1009.42 1009.72 1009.86 1010.26
1016.16 1016.31 1016.78 1017.03 1017.17 1017.08 1016.64 1015.77 1015.68 1015.55 1015.41 1015.52 1015.52 1015.96 1016.85 1017.39 1018.02 1018.64 1018.94 1019.13 1019.77 1020.66 1021.19 1021.39 1021.38 1021.27 1021.11 1020.87 1020.78 1020.46 1020.24 1019.83 1019.47 1019.01 1018.36 1017.42 1016.82 1016.09 1015.04 1013.99 1013.06 1012.26 1011.75 1011.23 1010.52 1010.20 1009.78 1009.75 1009.62 1009.54 1009.45 1009.79 1009.94 1010.09
1015.57 1015.99 1016.50 1016.82 1016.72 1016.34 1016.05 1015.28 1015.12 1014.84 1015.16 1015.38 1015.54 1015.88 1016.87 1017.63 1018.38 1018.71 1019.18 1020.30 1021.20 1021.46 1021.55 1021.60 1021.50 1021.25 1020.84 1020.71 1020.40 1020.24 1020.12 1019.82 1019.50 1019.19 1018.79 1018.12 1017.35 1016.73 1016.16 1015.21 1014.34 1013.99 1013.68 1013.39 1012.54 1011.62 1010.81 1010.10 1009.79 1009.66 1009.79 1009.90 1010.01 1010.23
1015.52 1015.71 1015.93 1016.02 1016.07 1015.68 1015.44 1014.75 1014.93 1014.92 1015.27 1015.31 1015.52 1016.01 1016.78 1017.44 1017.98 1018.38 1020.06 1020.92 1021.34 1021.33 1021.40 1021.42 1021.32 1021.11 1020.80 1020.50 1020.32 1020.22 1019.98 1019.77 1019.66 1019.45 1019.23 1018.73 1018.05 1017.48 1016.80 1016.23 1015.63 1015.07 1014.78 1014.35 1013.81 1013.18 1012.35 1011.29 1010.43 1009.97 1010.16 1010.20 1010.43 1010.79
1015.30 1015.57 1015.63 1015.44 1015.48 1015.37 1014.88 1014.72 1014.63 1014.73 1014.82 1015.21 1015.74 1016.10 1016.75 1017.37 1018.04 1019.08 1020.50 1021.01 1021.24 1021.21 1021.37 1021.33 1021.15 1020.96 1020.72 1020.53 1020.46 1020.38 1020.24 1020.02 1019.93 1019.54 1019.26 1018.85 1018.33 1017.81 1017.39 1016.94 1016.40 1015.95 1015.71 1015.35 1014.71 1013.77 1012.85 1012.22 1011.40 1011.03 1010.29 1010.33 1010.60 1010.85
1015.58 1015.72 1015.70 1015.18 1014.90 1014.91 1014.41 1014.28 1014.41 1014.65 1014.71 1015.04 1015.53 1015.84 1016.61 1017.13 1018.40 1019.56 1020.55 1020.89 1021.08 1021.16 1021.36 1021.24 1021.02 1020.86 1020.77 1020.71 1020.71 1020.90 1020.64 1020.48 1020.35 1020.06 1019.71 1019.25 1019.06 1018.44 1017.99 1017.59 1017.14 1016.64 1016.19 1015.66 1015.00 1014.38 1013.82 1013.27 1012.66 1011.84 1010.93 1010.33 1010.57 1010.81
1015.34 1015.19 1015.19 1014.66 1014.33 1014.05 1013.64 1013.59 1013.79 1014.05 1014.35 1014.69 1015.02 1015.54 1016.30 1017.61 1018.75 1019.72 1020.10 1020.33 1020.63 1021.08 1021.26 1021.18 1021.16 1021.00 1020.88 1020.90 1021.22 1021.20 1021.18 1020.76 1020.54 1020.42 1019.90 1019.57 1019.40 1019.24 1018.65 1017.98 1017.52 1016.95 1016.62 1016.18 1015.60 1014.91 1014.26 1013.89 1013.32 1012.50 1011.63 1010.85 1010.50 1010.59
1015.13 1014.73 1014.32 1013.97 1013.58 1013.23 1013.12 1012.96 1013.15 1013.61 1013.99 1014.25 1014.85 1015.81 1016.78 1017.94 1018.80 1019.64 1019.82 1019.92 1020.55 1020.60 1020.61 1020.60 1020.74 1020.73 1020.78 1020.98 1021.21 1021.29 1021.18 1021.03 1021.07 1021.00 1020.51 1020.13 1019.91 1019.77 1019.32 1018.68 1017.98 1017.76 1017.31 1016.60 1016.06 1015.55 1014.78 1014.07 1013.52 1012.94 1012.18 1011.51 1010.94 1010.44
1014.64 1014.12 1013.80 1013.42 1013.22 1012.89 1012.91 1012.82 1013.02 1013.26 1013.45 1013.55 1014.41 1015.70 1016.76 1017.66 1018.55 1019.12 1019.30 1019.61 1019.82 1020.10 1020.25 1020.19 1020.04 1020.01 1020.40 1020.86 1021.34 1021.50 1021.53 1021.39 1021.24 1021.10 1020.74 1020.72 1020.43 1020.15 1019.83 1019.06 1018.62 1018.04 1017.51 1016.98 1016.46 1015.77 1015.13 1014.48 1013.70 1013.07 1012.45 1011.68 1010.89 1010.47
1014.10 1013.63 1013.43 1013.13 1013.01 1012.71 1012.49 1012.44 1012.43 1012.43 1012.44 1013.35 1014.59 1016.12 1017.38 1018.02 1018.35 1018.62 1019.22 1019.49 1019.74 1020.06 1020.56 1020.60 1020.72 1020.55 1020.88 1021.30 1021.62 1021.74 1021.76 1021.73 1021.69 1021.57 1021.66 1021.50 1020.95 1020.42 1019.94 1019.55 1018.83 1018.25 1017.53 1016.76 1016.20 1015.92 1015.29 1014.24 1013.37 1012.66 1011.82 1011.10 1010.41 1010.07
1013.26 1012.81 1012.84 1012.41 1012.46 1012.27 1011.99 1012.00 1012.22 1012.43 1012.87 1013.70 1015.05 1016.69 1017.71 1018.57 1019.04 1018.88 1019.36 1019.80 1020.30 1020.69 1020.91 1021.01 1021.11 1021.15 1021.53 1021.66 1022.01 1022.26 1022.21 1022.16 1022.33 1022.41 1022.36 1022.16 1021.74 1021.08 1020.49 1019.88 1019.14 1018.63 1018.06 1017.44 1016.71 1015.90 1014.99 1013.79 1012.91 1012.30 1011.68 1010.87 1010.35 1009.92
1012.03 1011.96 1012.01 1011.78 1011.76 1011.54 1011.46 1011.88 1012.37 1012.99 1013.73 1014.64 1015.23 1016.27 1017.66 1019.07 1019.82 1020.19 1020.40 1020.52 1020.72 1020.96 1021.26 1021.63 1021.74 1021.72 1021.87 1022.07 1022.28 1022.38 1022.65 1022.63 1022.47 1022.41 1022.35 1022.25 1021.99 1021.58 1020.98 1020.39 1019.83 1019.28 1018.73 1018.34 1017.71 1017.19 1016.36 1014.97 1014.24 1013.62 1013.02 1012.45 1011.73 1010.93
1011.44 1011.30 1011.31 1011.51 1011.48 1011.35 1011.65 1012.78 1013.63 1014.36 1015.46 1015.94 1016.89 1017.50 1018.47 1019.41 1020.68 1021.35 1021.46 1021.18 1021.45 1021.89 1021.97 1022.02 1022.18 1022.30 1022.17 1022.15 1022.22 1022.32 1022.44 1022.75 1022.74 1022.74 1022.62 1022.46 1022.32 1022.01 1021.61 1021.15 1020.62 1020.07 1019.63 1019.19 1018.65 1018.08 1017.38 1016.58 1015.92 1015.20 1014.40 1013.73 1013.10 1012.37
1010.95 1010.86 1010.89 1011.23 1011.38 1011.89 1012.96 1013.59 1014.55 1015.48 1015.99 1016.61 1017.42 1017.92 1018.79 1019.99 1021.10 1021.83 1021.85 1021.58 1021.79 1022.06 1022.24 1022.29 1022.23 1022.35 1022.43 1022.55 1022.63 1022.59 1022.63 1022.77 1022.94 1022.84 1022.75 1022.81 1022.77 1022.55 1022.21 1021.85 1021.41 1020.91 1020.52 1020.22 1019.79 1019.27 1018.72 1018.18 1017.62 1017.02 1016.34 1015.64 1014.89 1014.07
Wind_Speed
11 10 9 8 10 8 5 8 10 11 12 12 12 13 13 13 12 5 5 2 3 4 12 11 11 13 4 4 4 5 7 4 4 5 2 3 2 4 4 3 4 5 2 4 3 4 6 2 4 7 8 19 14 16
11 10 10 8 10 8 4 7 9 11 11 13 13 13 13 12 12 10 3 3 1 5 8 15 18 20 18 25 13 3 7 5 3 3 3 3 2 2 2 4 1 3 5 3 6 6 1 6 6 13 7 12 17 14
13 11 10 9 9 8 6 7 10 11 12 13 14 14 14 14 12 9 3 2 1 4 8 3 6 6 4 11 12 6 3 7 4 3 1 3 5 1 3 4 5 4 2 5 2 5 9 8 5 7 9 14 18 15
12 11 10 9 9 7 7 8 10 11 12 15 15 15 15 15 13 12 4 3 1 4 5 9 6 15 13 10 7 19 6 2 4 2 3 3 3 3 3 9 11 9 5 5 6 8 11 6 8 11 10 16 16 12
13 11 10 10 9 7 8 8 11 12 13 15 16 16 16 15 15 9 7 4 6 2 4 9 17 6 9 6 5 14 11 4 2 2 3 3 3 2 4 4 5 4 5 2 4 5 3 11 13 10 11 15 12 12
13 12 10 10 9 8 8 8 12 13 15 17 15 17 16 14 13 2 4 2 5 5 4 6 5 8 15 14 5 13 10 3 3 3 2 3 3 2 4 4 5 3 8 7 4 5 6 6 12 13 12 10 12 10
13 13 11 10 9 9 8 9 13 15 17 18 16 16 16 13 2 3 3 3 4 1 2 5 7 7 7 3 4 3 2 3 3 3 4 3 3 5 4 5 5 12 9 4 7 6 4 8 6 13 10 10 9 7
13 12 11 10 9 8 7 9 13 16 19 20 19 18 16 12 8 5 4 10 5 2 1 3 6 6 4 4 4 2 3 3 3 2 2 3 2 4 5 5 13 8 5 4 5 5 4 3 9 12 8 8 7 8
14 12 11 9 9 7 7 10 14 17 21 22 23 15 1 2 2 2 4 8 2 2 1 2 3 5 5 4 4 3 2 2 2 3 3 2 2 5 4 2 9 2 2 3 6 8 4 3 7 11 10 9 8 9
15 13 11 11 9 6 7 10 14 19 23 23 1 2 1 2 7 7 2 2 1 1 1 2 3 4 4 3 4 3 1 1 2 4 2 3 4 4 4 6 3 1 4 4 5 11 5 1 6 9 10 9 8 9
15 13 13 12 8 5 6 8 12 18 9 5 4 1 3 8 1 1 2 2 2 1 1 3 5 5 3 4 4 2 4 3 2 3 3 1 3 4 2 4 2 4 4 4 5 5 6 4 5 7 7 9 10 10
16 15 14 11 7 6 5 6 9 4 1 2 5 4 3 1 2 2 2 4 3 2 3 4 6 6 4 1 3 4 3 4 4 2 2 3 5 12 12 2 4 4 2 3 5 7 8 4 3 4 5 7 8 6
16 15 14 11 8 7 6 5 7 7 7 1 1 2 2 2 2 1 3 3 3 1 3 3 6 3 3 1 2 2 4 4 7 2 2 4 15 17 19 9 3 5 3 5 4 6 6 6 3 3 5 7 7 9
16 15 13 10 9 8 7 5 5 4 1 2 3 4 3 1 2 3 1 1 3 1 5 4 4 3 3 1 1 3 4 4 4 9 5 9 21 23 23 6 3 5 3 5 6 5 5 7 7 5 7 7 9 11
17 15 11 8 12 10 9 5 4 1 2 3 1 2 3 2 2 2 2 2 3 2 3 5 4 2 4 3 1 3 5 7 7 5 6 13 23 26 9 13 7 2 3 4 4 6 5 5 7 6 5 5 9 10
18 11 6 10 11 11 9 4 2 3 3 2 2 1 2 4 4 4 2 2 3 4 4 2 3 5 5 5 5 7 4 3 4 6 8 13 20 22 10 10 9 8 2 5 4 5 5 5 6 6 5 6 8 10
14 3 8 13 10 9 5 2 2 4 3 2 3 2 3 3 3 1 2 2 3 4 2 2 5 2 2 5 4 4 6 6 7 10 11 16 18 22 17 9 10 11 6 2 2 3 5 4 5 6 6 5 6 7
2 4 10 12 7 5 3 3 3 3 4 4 1 3 1 3 4 3 2 3 3 2 2 2 3 6 3 2 2 3 6 7 7 9 10 13 16 18 16 12 8 8 8 8 3 2 3 5 5 3 5 5 5 5
6 6 11 10 4 2 3 4 4 2 5 2 2 1 4 3 2 3 3 4 2 2 4 4 4 3 2 2 4 7 6 6 10 11 10 12 13 16 16 16 12 7 7 8 6 3 4 5 5 4 4 3 4 2
12 9 9 7 4 2 3 2 3 2 2 3 2 2 4 4 3 4 4 4 4 4 5 4 2 1 2 5 5 4 5 8 9 11 11 10 10 14 14 13 11 9 6 8 7 11 6 3 4 5 4 4 5 4
5 5 7 4 2 2 3 1 2 4 3 2 2 4 4 2 4 2 2 2 5 3 3 1 1 2 4 4 2 3 5 7 7 7 9 10 10 9 9 10 12 11 9 8 8 7 8 5 3 1 6 4 4 5
3 10 3 3 2 4 3 3 3 2 3 2 0 3 4 3 3 2 3 5 3 1 1 0 2 3 3 3 4 5 7 8 8 6 9 11 8 9 9 9 10 9 9 10 10 10 8 5 5 2 4 4 4 4
6 4 2 4 4 3 5 1 2 2 3 3 2 3 2 2 3 4 4 2 2 2 2 1 2 3 3 4 3 5 6 8 6 5 8 7 6 7 8 8 9 9 9 10 10 9 8 12 10 4 2 4 5 4
2 3 3 4 4 4 2 2 2 2 2 2 3 3 4 4 3 4 2 2 2 3 1 1 2 2 2 3 2 4 5 4 5 5 5 6 8 8 8 8 8 8 8 8 8 9 9 8 10 9 1 3 3 5
4 3 4 4 4 3 5 5 4 3 4 4 4 3 2 3 3 3 4 2 4 3 2 2 1 2 1 2 2 4 6 4 3 5 6 5 7 7 7 6 7 7 8 9 10 11 10 8 8 9 10 4 6 7
3 4 6 5 3 4 5 5 6 5 3 4 4 4 3 4 3 3 4 4 3 3 3 3 2 2 2 1 3 2 3 4 4 4 3 3 4 6 9 9 9 8 10 9 10 12 12 10 10 13 10 10 5 5
4 5 4 3 3 3 2 2 3 4 4 5 4 3 4 4 3 3 2 2 4 4 5 4 4 4 4 3 3 3 3 4 4 3 3 6 4 6 8 8 11 9 10 11 11 12 12 11 10 10 9 8 7 5
4 3 5 4 3 3 3 3 5 5 4 3 5 4 7 7 4 4 4 4 4 4 4 2 1 2 4 4 4 4 3 3 4 5 3 4 5 4 9 8 7 13 10 10 11 11 10 10 10 10 10 9 10 6
4 3 3 4 2 1 2 4 4 4 4 5 5 3 3 2 2 3 3 4 4 5 4 4 5 5 5 5 4 3 3 4 9 12 12 8 8 6 9 9 8 9 10 11 14 11 15 13 10 9 12 9 9 9
4 4 3 5 6 5 4 4 2 1 4 4 6 5 6 4 4 2 4 4 4 4 4 5 4 5 4 5 4 4 3 3 2 3 3 6 6 8 8 9 9 9 10 11 12 14 17 12 12 9 10 8 4 4
3 5 3 3 4 4 4 3 5 4 4 5 9 11 7 5 3 5 5 3 5 5 6 5 5 4 5 5 4 4 3 4 4 6 3 2 4 6 8 8 8 8 9 10 11 11 13 12 12 12 13 14 15 12
4 5 5 4 2 2 5 5 5 4 3 4 4 3 4 4 3 3 4 3 6 5 4 5 4 3 4 4 4 4 5 3 3 3 5 4 5 6 7 7 7 7 9 10 10 11 15 15 12 14 13 16 16 15
3 3 3 4 2 5 3 5 4 4 2 3 2 3 4 3 4 2 2 2 4 3 2 1 3 4 6 6 6 5 4 3 3 6 7 5 6 6 5 6 7 8 9 9 10 11 13 15 14 16 16 16 16 17
Wind_Direction
247 253 263 273 281 288 291 305 311 316 319 323 328 329 327 330 325 346 268 239 172 258 284 257 266 258 269 219 243 296 357 345 350 10 347 323 337 327 332 272 212 198 214 236 250 259 280 99 20 311 293 303 305 316
242 249 257 257 268 275 283 298 304 309 313 317 320 321 319 322 320 324 273 304 303 241 255 302 270 250 246 248 263 216 236 300 283 352 13 326 301 311 324 289 354 276 207 244 209 238 285 337 237 279 276 288 304 295
241 247 251 258 264 266 278 294 301 306 310 311 314 317 315 315 312 300 263 248 329 265 289 310 268 263 238 230 217 205 239 211 220 187 116 265 257 177 264 252 276 284 182 243 275 259 255 285 293 263 280 297 297 294
233 241 248 253 262 253 277 295 298 304 308 309 310 313 310 310 311 305 274 214 197 266 277 277 305 304 297 270 217 198 196 87 132 135 213 236 250 183 263 280 281 257 257 238 253 281 305 307 321 307 309 297 299 312
228 236 242 250 252 251 269 290 296 302 305 305 309 310 308 311 312 305 270 223 184 219 285 296 310 271 279 292 257 194 203 181 164 178 218 228 234 258 246 246 242 196 231 253 259 272 268 311 307 308 310 309 314 316
224 228 235 244 245 251 266 290 295 300 304 304 310 309 303 307 314 313 342 72 177 186 290 307 286 293 309 324 210 185 196 178 163 201 217 233 268 90 270 270 266 281 263 213 260 251 234 305 321 343 305 308 314 317
221 225 225 238 239 252 273 294 298 304 305 303 311 308 298 293 265 220 208 232 331 296 265 296 308 285 309 36 348 18 134 212 168 194 225 223 210 195 245 251 281 265 277 221 256 299 301 333 352 329 324 324 318 326
225 226 225 225 233 250 278 296 302 305 305 306 310 302 287 280 276 259 253 252 186 249 279 307 284 309 330 315 294 201 203 171 207 227 213 227 219 212 262 306 270 265 204 267 331 335 244 96 7 340 335 337 344 359
225 222 220 219 230 249 281 300 305 309 308 310 311 300 125 178 225 220 132 88 63 111 322 263 297 294 331 290 266 324 195 238 153 230 235 209 245 234 216 102 290 137 137 346 336 346 25 86 13 347 355 356 358 -0
222 218 209 214 223 246 286 304 314 318 315 313 301 152 130 223 133 114 117 158 88 58 245 261 269 268 314 278 284 330 253 253 246 226 221 207 256 280 210 230 295 146 68 8 333 11 357 332 14 12 1 360 10 3
214 207 205 208 215 245 283 311 326 329 348 32 7 346 279 291 56 176 190 191 118 258 214 250 241 270 255 259 278 261 292 249 274 268 256 312 319 322 334 279 203 118 67 4 351 25 28 84 36 14 8 356 16 12
205 199 198 195 199 237 272 307 330 344 63 282 276 286 286 289 214 253 220 126 187 235 223 243 269 212 267 233 297 303 280 309 248 306 274 19 340 343 344 205 180 141 128 28 18 53 36 127 64 17 19 29 13 16
196 194 187 181 203 233 256 289 311 304 314 253 233 262 103 260 24 177 315 356 346 253 267 291 315 254 297 47 278 312 296 278 322 353 60 39 334 333 322 304 214 174 136 74 60 68 56 57 138 35 8 27 31 31
187 181 174 182 213 232 250 275 305 343 298 225 193 324 167 274 309 43 110 177 255 299 303 288 277 249 276 58 22 293 312 313 344 16 3 330 324 315 308 192 222 168 139 90 72 82 54 42 40 73 41 18 31 39
168 164 168 207 224 224 244 255 293 260 248 252 137 234 221 232 81 152 146 62 300 261 327 323 294 172 275 81 22 340 329 35 21 2 303 313 317 319 42 50 356 23 170 73 94 80 79 45 38 48 41 24 34 41
146 136 203 218 211 209 231 256 226 199 245 237 235 334 301 63 350 14 32 329 304 328 331 12 335 20 357 330 60 21 19 18 300 317 314 317 326 327 19 21 8 358 111 106 119 91 103 83 58 55 71 32 44 46
141 178 221 196 194 167 166 185 209 217 252 248 257 234 167 179 163 25 89 309 295 48 318 13 7 342 266 37 39 15 349 314 311 325 326 323 334 340 340 347 8 350 357 68 78 121 127 113 88 70 69 52 52 59
139 186 184 159 143 161 178 199 251 204 224 234 209 268 173 110 106 33 1 346 46 347 358 37 57 26 47 45 16 338 301 314 338 316 319 327 340 330 337 328 348 342 355 15 350 180 129 123 105 109 105 94 78 56
139 144 151 153 164 174 191 204 199 243 221 218 204 227 100 100 75 119 55 3 48 29 63 45 56 45 23 17 316 308 328 343 330 325 325 337 333 329 335 346 348 355 341 347 336 267 226 170 168 162 161 143 125 124
119 130 147 149 168 184 231 240 128 172 254 234 93 98 118 120 146 68 50 28 38 63 46 51 51 9 285 296 309 357 344 337 328 326 334 345 341 339 340 345 345 344 343 7 23 27 10 1 142 159 153 153 119 122
122 155 148 144 167 214 271 212 192 200 210 147 214 118 127 92 78 70 57 23 55 41 71 68 324 309 313 309 349 357 346 335 327 325 324 326 332 328 338 347 359 4 15 4 3 9 16 22 1 341 146 146 137 128
181 159 120 199 235 206 231 237 195 224 101 216 63 119 120 117 146 143 126 54 77 115 105 163 304 310 323 12 350 358 346 345 340 337 339 330 339 3 352 349 357 15 5 0 351 352 349 353 341 165 144 138 130 127
145 144 197 180 225 126 246 52 141 185 147 217 65 103 99 99 146 116 75 127 178 143 146 204 258 280 314 332 343 344 350 358 349 5 358 352 348 3 356 359 358 10 3 355 344 340 337 338 350 42 69 120 125 128
105 163 210 191 155 208 221 214 192 137 138 90 141 177 132 154 149 75 124 116 199 132 102 310 305 322 326 345 347 358 344 3 351 341 356 4 1 5 357 353 353 360 358 339 334 337 343 340 356 329 213 174 169 149
104 240 138 214 187 206 193 169 170 160 182 153 182 148 162 95 91 117 158 192 157 129 181 200 238 251 280 318 1 27 350 3 359 352 5 355 3 356 -0 358 352 354 351 341 339 339 339 340 335 328 330 187 184 174
170 219 174 196 228 198 206 174 160 168 164 155 201 137 85 101 120 186 185 162 127 151 195 207 226 295 331 74 112 36 330 347 17 353 323 8 19 13 348 347 352 351 349 337 334 329 330 334 327 327 328 327 223 177
203 216 205 237 241 214 244 95 109 113 168 199 157 108 106 125 188 174 160 123 137 208 208 221 220 206 187 134 123 83 36 26 32 313 317 12 13 19 352 340 346 341 335 336 335 329 321 321 318 313 315 312 300 224
223 248 210 200 212 190 206 157 142 170 196 196 103 148 160 172 166 168 167 176 172 195 205 204 79 153 131 105 111 85 45 23 25 12 358 359 351 4 351 336 343 330 333 338 334 326 323 316 307 298 290 287 284 270
226 230 187 218 187 191 194 183 198 205 175 139 121 95 108 67 171 105 121 140 118 87 71 61 25 54 73 90 84 85 73 49 41 30 18 1 352 345 352 338 342 348 339 339 336 332 326 319 303 293 281 268 259 268
235 182 206 181 158 192 211 182 177 94 60 86 102 99 91 51 34 79 95 96 89 94 99 92 70 67 65 68 68 85 35 64 84 102 37 355 334 329 336 339 343 353 347 345 344 339 341 350 356 359 357 345 328 256
226 170 213 159 186 192 176 129 77 65 68 80 110 125 117 135 50 32 40 67 83 69 67 61 53 47 67 59 49 43 63 14 46 45 38 347 344 342 341 343 338 352 351 354 353 356 352 1 6 7 9 7 360 354
192 206 173 162 205 187 91 66 21 80 109 102 98 82 72 73 78 351 336 73 75 68 58 70 69 52 67 57 49 61 114 92 43 21 28 35 8 348 349 345 338 359 2 5 1 5 8 12 12 15 14 17 13 9
186 216 175 131 107 100 111 109 104 106 100 107 100 129 80 98 117 169 353 54 117 117 103 73 80 78 71 64 46 27 63 101 84 41 50 73 51 29 14 7 359 1 12 12 10 9 14 19 23 21 20 22 24 25